Location: Brede
(50.9167°N, 0.6000°E)
Time: 03:37:59
(UTC+00:00)

COSMOS 2428 - Pass Details

Date: 08 August 2020
Orbit: 844 x 859 km, 70.9° (Epoch: 27 September)

Event Time Altitude Azimuth Distance (km) Brightness Sun altitude
Rises 00:07:06 0° 329° (NNW) 3,433 6.8 -23.0°
Reaches altitude 10° 00:09:33 10° 329° (NNW) 2,496 5.9 -23.0°
Maximum altitude 00:15:18 82° 244° (WSW) 872 2.6 -23.0°
Enters shadow 00:16:49 51° 164° (SSE) 1,068 2.8 -23.0°
